,,PA_Meas_PMT16A,,PR_Meas_QMR101_102,,RH_Meas_QMH101,,SR_Meas_QMS101,,TA_Meas_QMH101,,GenWind,,GenWind,
time,status,PA,status,PR,status,RH,status,SR,status,TA,status,DirAvg,status,SpdAvg,
2010-08-10, 00:00:04,VALID,917.735,VALID,0,VALID,93.4555,VALID,0,VALID,20.2668,VALID,354,VALID,0.352734,
2010-08-10, 00:01:04,VALID,917.754,VALID,0,VALID,93.242,VALID,0,VALID,20.2668,VALID,354,VALID,0.0582031,
2010-08-10, 00:02:04,VALID,917.748,VALID,0,VALID,92.9752,VALID,0,VALID,20.2473,VALID,354,VALID,0,
2010-08-10, 00:03:04,VALID,917.728,VALID,0,VALID,92.8837,VALID,0,VALID,20.2473,VALID,354,VALID,0.206641,
2010-08-10, 00:04:04,VALID,917.737,VALID,0,VALID,92.8685,VALID,0,VALID,20.2263,VALID,354,VALID,0.273438,
2010-08-10, 00:05:04,VALID,917.733,VALID,0,VALID,93.2115,VALID,0,VALID,20.2278,VALID,354,VALID,0.249609,
2010-08-10, 00:06:04,VALID,917.7,VALID,0,VALID,93.425,VALID,0,VALID,20.1873,VALID,354,VALID,0.478125,
2010-08-10, 00:07:04,VALID,917.676,VALID,0,VALID,93.5012,VALID,0,VALID,20.1888,VALID,354,VALID,0.655078,
2010-08-10, 00:08:04,VALID,917.658,VALID,0,VALID,93.5393,VALID,0,VALID,20.1498,VALID,354,VALID,0.617188,
2010-08-10, 00:09:04,VALID,917.652,VALID,0,VALID,93.6308,VALID,0,VALID,20.1303,VALID,354,VALID,0.567969,
2010-08-10, 00:10:04,VALID,917.599,VALID,0,VALID,93.6994,VALID,0,VALID,20.0913,VALID,354,VALID,0.740234,
2010-08-10, 00:11:04,VALID,917.609,VALID,0,VALID,93.768,VALID,0,VALID,20.0523,VALID,354,VALID,0.720703,
2010-08-10, 00:12:04,VALID,917.589,VALID,0,VALID,93.8138,VALID,0,VALID,20.0118,VALID,354,VALID,0.658203,
2010-08-10, 00:13:04,VALID,917.55,VALID,0,VALID,93.9052,VALID,0,VALID,19.9743,VALID,354,VALID,0.541016,
2010-08-10, 00:14:04,VALID,917.54,VALID,0,VALID,94.0272,VALID,0,VALID,19.9548,VALID,354,VALID,0.498047,
2010-08-10, 00:15:04,VALID,917.513,VALID,0,VALID,94.0653,VALID,0,VALID,19.9353,VALID,354,VALID,0.685938,
2010-08-10, 00:16:04,VALID,917.498,VALID,0,VALID,94.1492,VALID,0,VALID,19.9158,VALID,354,VALID,0.734375,
2010-08-10, 00:17:04,VALID,917.457,VALID,0,VALID,94.294,VALID,0,VALID,19.8963,VALID,354,VALID,0.783203,
2010-08-10, 00:18:04,VALID,917.445,VALID,0,VALID,94.3093,VALID,0,VALID,19.9158,VALID,354,VALID,0.932031,
2010-08-10, 00:19:04,VALID,917.392,VALID,0,VALID,94.2407,VALID,0,VALID,19.8963,VALID,12,VALID,1.13594,
2010-08-10, 00:20:04,VALID,917.384,VALID,0,VALID,94.1797,VALID,0,VALID,19.8963,VALID,103,VALID,1.14453,
2010-08-10, 00:21:04,VALID,917.391,VALID,0,VALID,94.2026,VALID,0,VALID,19.8963,VALID,103,VALID,0.747266,
2010-08-10, 00:22:04,VALID,917.362,VALID,0,VALID,94.1797,VALID,0,VALID,19.8768,VALID,103,VALID,0.742188,
2010-08-10, 00:23:04,VALID,917.393,VALID,0,VALID,94.3093,VALID,0,VALID,19.8963,VALID,103,VALID,0.981641,
2010-08-10, 00:24:04,VALID,917.345,VALID,0,VALID,94.3017,VALID,0,VALID,19.9158,VALID,103,VALID,1.12188,
2010-08-10, 00:25:04,VALID,917.299,VALID,0,VALID,94.1797,VALID,0,VALID,19.9353,VALID,103,VALID,0.986328,
2010-08-10, 00:26:04,VALID,917.264,VALID,0,VALID,94.0348,VALID,0,VALID,19.9158,VALID,103,VALID,1.01016,
2010-08-10, 00:27:04,VALID,917.227,VALID,0,VALID,93.9891,VALID,0,VALID,19.9353,VALID,103,VALID,1.02891,
2010-08-10, 00:28:04,VALID,917.212,VALID,0,VALID,93.9815,VALID,0,VALID,19.8963,VALID,103,VALID,0.919531,
2010-08-10, 00:29:04,VALID,917.233,VALID,0,VALID,93.9815,VALID,0,VALID,19.9158,VALID,103,VALID,0.5625,
2010-08-10, 00:30:04,VALID,917.198,VALID,0,VALID,93.9891,VALID,0,VALID,19.8963,VALID,103,VALID,0.228906,
2010-08-10, 00:31:04,VALID,917.171,VALID,0,VALID,94.0272,VALID,0,VALID,19.8768,VALID,103,VALID,0.519531,
2010-08-10, 00:32:04,VALID,917.165,VALID,0,VALID,94.0806,VALID,0,VALID,19.8768,VALID,104,VALID,0.513672,
2010-08-10, 00:33:04,VALID,917.141,VALID,0,VALID,94.0501,VALID,0,VALID,19.8768,VALID,104,VALID,0.677734,
2010-08-10, 00:34:04,VALID,917.123,VALID,0,VALID,93.8519,VALID,0,VALID,19.8378,VALID,104,VALID,0.39375,
2010-08-10, 00:35:04,VALID,917.081,VALID,0,VALID,93.5469,VALID,0,VALID,19.7793,VALID,104,VALID,0.494141,
2010-08-10, 00:36:04,VALID,917.052,VALID,0,VALID,93.2572,VALID,0,VALID,19.7208,VALID,104,VALID,0.635547,
2010-08-10, 00:37:04,VALID,917.04,VALID,0,VALID,93.6765,VALID,0,VALID,19.6428,VALID,104,VALID,0.681641,
2010-08-10, 00:38:04,VALID,917.017,VALID,0,VALID,94.1187,VALID,0,VALID,19.6038,VALID,104,VALID,0.722656,
2010-08-10, 00:39:04,VALID,916.989,VALID,0,VALID,94.1187,VALID,0,VALID,19.5453,VALID,104,VALID,0.525,
2010-08-10, 00:40:04,VALID,917.011,VALID,0,VALID,94.073,VALID,0,VALID,19.5063,VALID,104,VALID,0.462109,
2010-08-10, 00:41:04,VALID,917.024,VALID,0,VALID,94.1721,VALID,0,VALID,19.5063,VALID,104,VALID,0.444922,
2010-08-10, 00:42:04,VALID,916.967,VALID,0,VALID,93.7147,VALID,0,VALID,19.4673,VALID,104,VALID,0.412109,
2010-08-10, 00:43:04,VALID,916.987,VALID,0,VALID,93.4631,VALID,0,VALID,19.3893,VALID,104,VALID,0.426172,
2010-08-10, 00:44:04,VALID,916.953,VALID,0,VALID,93.8138,VALID,0,VALID,19.3308,VALID,104,VALID,0.448828,
2010-08-10, 00:45:04,VALID,916.896,VALID,0,VALID,94.0577,VALID,0,VALID,19.2918,VALID,104,VALID,0.395312,
2010-08-10, 00:46:04,VALID,916.949,VALID,0,VALID,94.5151,VALID,0,VALID,19.2918,VALID,104,VALID,0.333203,
2010-08-10, 00:47:04,VALID,916.937,VALID,0,VALID,94.6218,VALID,0,VALID,19.3113,VALID,104,VALID,0.401953,
2010-08-10, 00:48:04,VALID,916.903,VALID,0,VALID,94.3321,VALID,0,VALID,19.3893,VALID,104,VALID,0.140234,
2010-08-10, 00:49:04,VALID,916.915,VALID,0,VALID,93.9129,VALID,0.107441,VALID,19.4283,VALID,104,VALID,0.229687,
2010-08-10, 00:50:04,VALID,916.933,VALID,0,VALID,93.7375,VALID,0,VALID,19.4478,VALID,104,VALID,0,
2010-08-10, 00:51:04,VALID,916.929,VALID,0,VALID,93.6537,VALID,0,VALID,19.4673,VALID,104,VALID,0,
2010-08-10, 00:52:04,VALID,916.93,VALID,0,VALID,93.3716,VALID,0,VALID,19.4868,VALID,104,VALID,0,
2010-08-10, 00:53:04,VALID,916.912,VALID,0,VALID,93.2115,VALID,0,VALID,19.5063,VALID,104,VALID,0,
2010-08-10, 00:54:04,VALID,916.872,VALID,0,VALID,93.0667,VALID,0,VALID,19.5258,VALID,104,VALID,0,
2010-08-10, 00:55:04,VALID,916.875,VALID,0,VALID,92.4797,VALID,0,VALID,19.5063,VALID,104,VALID,0,
2010-08-10, 00:56:04,VALID,916.87,VALID,0,VALID,92.5254,VALID,0.107441,VALID,19.5258,VALID,104,VALID,0,
2010-08-10, 00:57:04,VALID,916.885,VALID,0,VALID,92.3272,VALID,0,VALID,19.5648,VALID,104,VALID,0,
2010-08-10, 00:58:04,VALID,916.898,VALID,0,VALID,92.2128,VALID,0,VALID,19.5648,VALID,104,VALID,0,
2010-08-10, 00:59:04,VALID,916.883,VALID,0,VALID,92.2814,VALID,0,VALID,19.5843,VALID,104,VALID,0.0910156,
2010-08-10, 01:00:04,VALID,916.916,VALID,0,VALID,92.3272,VALID,0,VALID,19.6428,VALID,104,VALID,0,
2010-08-10, 01:01:04,VALID,916.912,VALID,0,VALID,92.9904,VALID,0,VALID,19.7013,VALID,104,VALID,0.400781,
2010-08-10, 01:02:04,VALID,916.871,VALID,0,VALID,93.2344,VALID,0,VALID,19.7403,VALID,104,VALID,0.347656,
2010-08-10, 01:03:04,VALID,916.876,VALID,0,VALID,93.6918,VALID,0,VALID,19.8183,VALID,104,VALID,0.277734,
2010-08-10, 01:04:04,VALID,916.869,VALID,0,VALID,93.8061,VALID,0,VALID,19.8768,VALID,104,VALID,0,
2010-08-10, 01:05:04,VALID,916.825,VALID,0,VALID,92.5254,VALID,0,VALID,19.8378,VALID,104,VALID,0.492188,
2010-08-10, 01:06:04,VALID,916.852,VALID,0,VALID,92.6245,VALID,0,VALID,19.8573,VALID,104,VALID,0.54375,
2010-08-10, 01:07:04,VALID,916.877,VALID,0,VALID,92.1137,VALID,0,VALID,19.8573,VALID,104,VALID,0.476172,
2010-08-10, 01:08:04,VALID,916.878,VALID,0,VALID,91.0617,VALID,0,VALID,19.8573,VALID,104,VALID,0.172656,
2010-08-10, 01:09:04,VALID,916.88,VALID,0,VALID,90.4442,VALID,0,VALID,19.8393,VALID,104,VALID,0,
2010-08-10, 01:10:04,VALID,916.894,VALID,0,VALID,91.0541,VALID,0,VALID,19.7598,VALID,104,VALID,0,
2010-08-10, 01:11:04,VALID,916.849,VALID,0,VALID,91.2904,VALID,0,VALID,19.7208,VALID,104,VALID,0,
2010-08-10, 01:12:04,VALID,916.836,VALID,0,VALID,91.2904,VALID,0,VALID,19.7013,VALID,104,VALID,0,
2010-08-10, 01:13:04,VALID,916.839,VALID,0,VALID,91.8698,VALID,0,VALID,19.7013,VALID,104,VALID,0,
2010-08-10, 01:14:04,VALID,916.876,VALID,0,VALID,92.2891,VALID,0,VALID,19.6818,VALID,104,VALID,0,
2010-08-10, 01:15:04,VALID,916.855,VALID,0,VALID,92.2052,VALID,0,VALID,19.6623,VALID,104,VALID,0,
2010-08-10, 01:16:04,VALID,916.846,VALID,0,VALID,91.3285,VALID,0,VALID,19.6038,VALID,104,VALID,0,
2010-08-10, 01:17:04,VALID,916.852,VALID,0,VALID,91.9003,VALID,0,VALID,19.5648,VALID,104,VALID,0,
2010-08-10, 01:18:04,VALID,916.873,VALID,0,VALID,92.1442,VALID,0,VALID,19.5063,VALID,104,VALID,0,
2010-08-10, 01:19:04,VALID,916.867,VALID,0,VALID,92.6321,VALID,0,VALID,19.4868,VALID,104,VALID,0,
2010-08-10, 01:20:04,VALID,916.873,VALID,0,VALID,93.0438,VALID,0,VALID,19.4868,VALID,104,VALID,0.33125,
2010-08-10, 01:21:04,VALID,916.858,VALID,0,VALID,93.1963,VALID,0,VALID,19.4883,VALID,104,VALID,0.314063,
2010-08-10, 01:22:04,VALID,916.823,VALID,0,VALID,93.2954,VALID,0,VALID,19.4673,VALID,104,VALID,0.388281,
2010-08-10, 01:23:04,VALID,916.79,VALID,0,VALID,93.4326,VALID,0,VALID,19.4673,VALID,104,VALID,0.455859,
2010-08-10, 01:24:04,VALID,916.783,VALID,0,VALID,92.411,VALID,0,VALID,19.4283,VALID,104,VALID,0.516406,
2010-08-10, 01:25:04,VALID,916.75,VALID,0,VALID,91.9155,VALID,0,VALID,19.3698,VALID,104,VALID,0.356641,
2010-08-10, 01:26:04,VALID,916.769,VALID,0,VALID,92.0832,VALID,0,VALID,19.2933,VALID,104,VALID,0.400781,
2010-08-10, 01:27:04,VALID,916.722,VALID,0,VALID,92.838,VALID,0,VALID,19.2334,VALID,104,VALID,0.377344,
2010-08-10, 01:28:04,VALID,916.757,VALID,0,VALID,93.3487,VALID,0,VALID,19.1944,VALID,104,VALID,0.357031,
2010-08-10, 01:29:04,VALID,916.73,VALID,0,VALID,93.6765,VALID,0,VALID,19.2153,VALID,104,VALID,0.355078,
2010-08-10, 01:30:04,VALID,916.779,VALID,0,VALID,93.4936,VALID,0,VALID,19.1749,VALID,104,VALID,0.259375,
2010-08-10, 01:31:04,VALID,916.737,VALID,0,VALID,93.768,VALID,0,VALID,19.1749,VALID,104,VALID,0.391016,
2010-08-10, 01:32:04,VALID,916.722,VALID,0,VALID,93.8824,VALID,0,VALID,19.2139,VALID,104,VALID,0.343359,
2010-08-10, 01:33:04,VALID,916.719,VALID,0,VALID,93.4707,VALID,0,VALID,19.1763,VALID,104,VALID,0.346094,
2010-08-10, 01:34:04,VALID,916.664,VALID,0,VALID,93.2191,VALID,0,VALID,19.1749,VALID,104,VALID,0.232812,
2010-08-10, 01:35:04,VALID,916.655,VALID,0,VALID,93.2572,VALID,0,VALID,19.1749,VALID,104,VALID,0.141406,
2010-08-10, 01:36:04,VALID,916.636,VALID,0,VALID,93.4402,VALID,0,VALID,19.1749,VALID,104,VALID,0.0652344,
2010-08-10, 01:37:04,VALID,916.581,VALID,0,VALID,93.3716,VALID,0,VALID,19.1554,VALID,104,VALID,0,
2010-08-10, 01:38:04,VALID,916.548,VALID,0,VALID,93.3945,VALID,0,VALID,19.1958,VALID,104,VALID,0,
2010-08-10, 01:39:04,VALID,916.52,VALID,0,VALID,93.2954,VALID,0,VALID,19.1763,VALID,104,VALID,0,
2010-08-10, 01:40:04,VALID,916.51,VALID,0,VALID,93.8519,VALID,0,VALID,19.2153,VALID,104,VALID,0.0421875,
2010-08-10, 01:41:04,VALID,916.475,VALID,0,VALID,94.0196,VALID,0,VALID,19.1944,VALID,104,VALID,0.341406,
2010-08-10, 01:42:04,VALID,916.441,VALID,0,VALID,93.4021,VALID,0,VALID,19.1749,VALID,104,VALID,0,
2010-08-10, 01:43:04,VALID,916.427,VALID,0,VALID,92.6931,VALID,0,VALID,19.1359,VALID,104,VALID,0,
2010-08-10, 01:44:04,VALID,916.41,VALID,0,VALID,92.411,VALID,0,VALID,19.1164,VALID,104,VALID,0.084375,
2010-08-10, 01:45:04,VALID,916.377,VALID,0,VALID,92.3729,VALID,0,VALID,19.0774,VALID,104,VALID,0.380469,
2010-08-10, 01:46:04,VALID,916.321,VALID,0,VALID,93.2801,VALID,0,VALID,19.0788,VALID,104,VALID,0.317969,
2010-08-10, 01:47:04,VALID,916.281,VALID,0,VALID,92.2433,VALID,0,VALID,18.9814,VALID,104,VALID,0.209375,
2010-08-10, 01:48:04,VALID,916.26,VALID,0,VALID,92.2814,VALID,0,VALID,18.9229,VALID,104,VALID,0.148047,
2010-08-10, 01:49:04,VALID,916.264,VALID,0,VALID,93.6232,VALID,0,VALID,18.8629,VALID,104,VALID,0.294141,
2010-08-10, 01:50:04,VALID,916.248,VALID,0,VALID,94.6828,VALID,0,VALID,18.8839,VALID,104,VALID,0.671484,
2010-08-10, 01:51:04,VALID,916.205,VALID,0,VALID,95.3842,VALID,0,VALID,18.9214,VALID,104,VALID,0.877734,
2010-08-10, 01:52:04,VALID,916.195,VALID,0,VALID,95.7654,VALID,0,VALID,18.9799,VALID,104,VALID,0.865625,
2010-08-10, 01:53:04,VALID,916.168,VALID,0,VALID,95.8416,VALID,0,VALID,18.9604,VALID,104,VALID,0.60625,
2010-08-10, 01:54:04,VALID,916.147,VALID,0,VALID,95.8568,VALID,0,VALID,18.9814,VALID,104,VALID,0.431641,
2010-08-10, 01:55:04,VALID,916.138,VALID,0,VALID,95.7044,VALID,0,VALID,18.9214,VALID,104,VALID,0,
2010-08-10, 01:56:04,VALID,916.106,VALID,0,VALID,95.4604,VALID,0,VALID,18.8824,VALID,104,VALID,0.282031,
2010-08-10, 01:57:04,VALID,916.118,VALID,0,VALID,94.9725,VALID,0,VALID,18.824,VALID,104,VALID,0.530078,
2010-08-10, 01:58:04,VALID,916.115,VALID,0,VALID,95.064,VALID,0,VALID,18.8629,VALID,104,VALID,0.682813,
2010-08-10, 01:59:04,VALID,916.128,VALID,0,VALID,95.2622,VALID,0,VALID,18.9229,VALID,104,VALID,0.798437,
2010-08-10, 02:00:04,VALID,916.152,VALID,0,VALID,95.247,VALID,0,VALID,18.8824,VALID,104,VALID,0.699219,
2010-08-10, 02:01:04,VALID,916.138,VALID,0,VALID,95.2851,VALID,0,VALID,18.8644,VALID,104,VALID,0.578125,
2010-08-10, 02:02:04,VALID,916.191,VALID,0,VALID,95.1326,VALID,0,VALID,18.8449,VALID,104,VALID,0.639453,
2010-08-10, 02:03:04,VALID,916.222,VALID,0,VALID,95.1402,VALID,0,VALID,18.8434,VALID,104,VALID,0.609375,
2010-08-10, 02:04:04,VALID,916.23,VALID,0,VALID,95.4223,VALID,0,VALID,18.9034,VALID,104,VALID,0.660937,
2010-08-10, 02:05:04,VALID,916.195,VALID,0,VALID,95.4909,VALID,0,VALID,18.9214,VALID,104,VALID,0.916016,
2010-08-10, 02:06:04,VALID,916.199,VALID,0,VALID,95.651,VALID,0,VALID,18.9814,VALID,105,VALID,0.940625,
2010-08-10, 02:07:04,VALID,916.186,VALID,0,VALID,95.7958,VALID,0,VALID,18.9814,VALID,105,VALID,0.673047,
2010-08-10, 02:08:04,VALID,916.157,VALID,0,VALID,95.8873,VALID,0,VALID,18.9814,VALID,105,VALID,0.669922,
2010-08-10, 02:09:04,VALID,916.147,VALID,0,VALID,95.9026,VALID,0,VALID,18.9814,VALID,105,VALID,0.689062,
2010-08-10, 02:10:04,VALID,916.084,VALID,0,VALID,95.9331,VALID,0,VALID,18.9814,VALID,105,VALID,1.01172,
2010-08-10, 02:11:04,VALID,916.06,VALID,0,VALID,95.9941,VALID,0,VALID,18.9814,VALID,105,VALID,0.720312,
2010-08-10, 02:12:04,VALID,916,VALID,0,VALID,96.0169,VALID,0,VALID,18.9814,VALID,105,VALID,0.533984,
2010-08-10, 02:13:04,VALID,915.969,VALID,0,VALID,96.0245,VALID,0,VALID,18.9424,VALID,105,VALID,0.421484,
2010-08-10, 02:14:04,VALID,915.959,VALID,0,VALID,96.0703,VALID,0,VALID,18.9619,VALID,105,VALID,0.624219,
2010-08-10, 02:15:04,VALID,915.97,VALID,0,VALID,96.1236,VALID,0,VALID,18.9409,VALID,105,VALID,0.583203,
2010-08-10, 02:16:04,VALID,915.962,VALID,0,VALID,96.0322,VALID,0,VALID,18.9229,VALID,105,VALID,0.376172,
2010-08-10, 02:17:04,VALID,915.914,VALID,0,VALID,95.9483,VALID,0,VALID,18.9229,VALID,105,VALID,0.606641,
2010-08-10, 02:18:04,VALID,915.894,VALID,0,VALID,95.9712,VALID,0,VALID,18.9229,VALID,105,VALID,0.988672,
2010-08-10, 02:19:04,VALID,915.879,VALID,0,VALID,96.0169,VALID,0,VALID,18.9229,VALID,105,VALID,0.635156,
2010-08-10, 02:20:04,VALID,915.848,VALID,0,VALID,96.0474,VALID,0,VALID,18.9229,VALID,105,VALID,1.27852,
2010-08-10, 02:21:04,VALID,915.834,VALID,0,VALID,96.1236,VALID,0,VALID,18.9438,VALID,105,VALID,1.33594,
2010-08-10, 02:22:04,VALID,915.829,VALID,0,VALID,96.0779,VALID,0,VALID,18.9034,VALID,105,VALID,1.23203,
2010-08-10, 02:23:04,VALID,915.847,VALID,0,VALID,96.0474,VALID,0,VALID,18.8839,VALID,105,VALID,1.15898,
2010-08-10, 02:24:04,VALID,915.798,VALID,0,VALID,96.0322,VALID,0,VALID,18.8449,VALID,105,VALID,1.32695,
2010-08-10, 02:25:04,VALID,915.774,VALID,0,VALID,96.0322,VALID,0,VALID,18.8644,VALID,105,VALID,1.31445,
2010-08-10, 02:26:04,VALID,915.731,VALID,0,VALID,96.0093,VALID,0,VALID,18.8449,VALID,105,VALID,1.40859,
2010-08-10, 02:27:04,VALID,915.739,VALID,0,VALID,96.055,VALID,0,VALID,18.8449,VALID,105,VALID,1.33789,
2010-08-10, 02:28:04,VALID,915.741,VALID,0,VALID,96.0322,VALID,0,VALID,18.8254,VALID,105,VALID,1.08086,
2010-08-10, 02:29:04,VALID,915.738,VALID,0,VALID,96.0703,VALID,0,VALID,18.8254,VALID,105,VALID,1.13672,
2010-08-10, 02:30:04,VALID,915.733,VALID,0,VALID,96.0474,VALID,0,VALID,18.7864,VALID,105,VALID,1.02695,
2010-08-10, 02:31:04,VALID,915.714,VALID,0,VALID,96.1618,VALID,0,VALID,18.7864,VALID,105,VALID,1.12227,
2010-08-10, 02:32:04,VALID,915.686,VALID,0,VALID,96.1618,VALID,0,VALID,18.7878,VALID,105,VALID,1.06875,
2010-08-10, 02:33:04,VALID,915.668,VALID,0,VALID,96.2609,VALID,0,VALID,18.7864,VALID,124,VALID,0.978125,
2010-08-10, 02:34:04,VALID,915.636,VALID,0,VALID,96.2609,VALID,0,VALID,18.7474,VALID,149,VALID,0.511328,
2010-08-10, 02:35:04,VALID,915.611,VALID,0,VALID,96.2456,VALID,0,VALID,18.7084,VALID,149,VALID,0.572266,
2010-08-10, 02:36:04,VALID,915.543,VALID,0,VALID,96.3219,VALID,0,VALID,18.7474,VALID,149,VALID,0.859766,
2010-08-10, 02:37:04,VALID,915.503,VALID,0,VALID,96.3447,VALID,0,VALID,18.7474,VALID,149,VALID,1.00195,
2010-08-10, 02:38:04,VALID,915.492,VALID,0,VALID,96.4057,VALID,0,VALID,18.7669,VALID,149,VALID,0.785156,
2010-08-10, 02:39:04,VALID,915.494,VALID,0,VALID,96.4591,VALID,0,VALID,18.8059,VALID,149,VALID,1.02148,
2010-08-10, 02:40:04,VALID,915.433,VALID,0,VALID,96.421,VALID,0,VALID,18.7669,VALID,149,VALID,0.756641,
2010-08-10, 02:41:04,VALID,915.417,VALID,0,VALID,96.4133,VALID,0,VALID,18.7864,VALID,149,VALID,1.11055,
2010-08-10, 02:42:04,VALID,915.376,VALID,0,VALID,96.4057,VALID,0,VALID,18.7669,VALID,149,VALID,0.909766,
2010-08-10, 02:43:04,VALID,915.334,VALID,0,VALID,96.3829,VALID,0,VALID,18.7864,VALID,149,VALID,0.772656,
2010-08-10, 02:44:04,VALID,915.319,VALID,0,VALID,96.4286,VALID,0,VALID,18.8059,VALID,149,VALID,1.00391,
2010-08-10, 02:45:04,VALID,915.282,VALID,0,VALID,96.4286,VALID,0,VALID,18.8254,VALID,133,VALID,0.777734,
2010-08-10, 02:46:04,VALID,915.292,VALID,0,VALID,96.4286,VALID,0,VALID,18.8254,VALID,133,VALID,0.773438,
2010-08-10, 02:47:04,VALID,915.263,VALID,0,VALID,96.3905,VALID,0,VALID,18.8463,VALID,133,VALID,0.934766,
2010-08-10, 02:48:04,VALID,915.232,VALID,0,VALID,96.3676,VALID,0,VALID,18.8463,VALID,133,VALID,0.960547,
2010-08-10, 02:49:04,VALID,915.229,VALID,0,VALID,96.3829,VALID,0,VALID,18.8449,VALID,133,VALID,0.85,
2010-08-10, 02:50:04,VALID,915.228,VALID,0,VALID,96.3752,VALID,0,VALID,18.8449,VALID,133,VALID,1.15234,
2010-08-10, 02:51:04,VALID,915.209,VALID,0,VALID,96.3447,VALID,0,VALID,18.8644,VALID,133,VALID,0.946094,
2010-08-10, 02:52:04,VALID,915.17,VALID,0,VALID,96.2761,VALID,0,VALID,18.8644,VALID,133,VALID,0.927344,
2010-08-10, 02:53:04,VALID,915.174,VALID,0,VALID,96.2304,VALID,0,VALID,18.8658,VALID,133,VALID,1.01016,
2010-08-10, 02:54:04,VALID,915.167,VALID,0,VALID,96.299,VALID,0,VALID,18.8839,VALID,133,VALID,0.964844,
2010-08-10, 02:55:04,VALID,915.175,VALID,0,VALID,96.2533,VALID,0,VALID,18.9034,VALID,133,VALID,1.00742,
2010-08-10, 02:56:04,VALID,915.165,VALID,0,VALID,96.1694,VALID,0,VALID,18.9034,VALID,133,VALID,0.670313,
2010-08-10, 02:57:04,VALID,915.164,VALID,0,VALID,96.116,VALID,0,VALID,18.9229,VALID,133,VALID,0.614062,
2010-08-10, 02:58:04,VALID,915.162,VALID,0,VALID,96.0169,VALID,0,VALID,18.9438,VALID,162,VALID,0.696094,
2010-08-10, 02:59:04,VALID,915.114,VALID,0,VALID,95.9178,VALID,0,VALID,18.9229,VALID,162,VALID,0.286719,
2010-08-10, 03:00:04,VALID,915.075,VALID,0,VALID,95.9178,VALID,0,VALID,18.9424,VALID,133,VALID,0.792578,
2010-08-10, 03:01:04,VALID,915.089,VALID,0,VALID,95.9254,VALID,0,VALID,18.9828,VALID,119,VALID,1.36289,
2010-08-10, 03:02:04,VALID,915.037,VALID,0,VALID,95.8492,VALID,0,VALID,18.9619,VALID,143,VALID,1.21406,
2010-08-10, 03:03:04,VALID,915.024,VALID,0,VALID,95.7958,VALID,0,VALID,18.9424,VALID,117,VALID,0.992578,
2010-08-10, 03:04:04,VALID,915.006,VALID,0,VALID,95.8263,VALID,0,VALID,18.9619,VALID,117,VALID,0.712109,
2010-08-10, 03:05:04,VALID,914.988,VALID,0,VALID,95.7425,VALID,0,VALID,18.9229,VALID,117,VALID,0.550391,
2010-08-10, 03:06:04,VALID,915.034,VALID,0,VALID,95.8568,VALID,0,VALID,18.9424,VALID,117,VALID,0.430469,
2010-08-10, 03:07:04,VALID,915.016,VALID,0,VALID,95.8492,VALID,0,VALID,18.9424,VALID,117,VALID,0.578125,
2010-08-10, 03:08:04,VALID,915.058,VALID,0,VALID,95.8035,VALID,0,VALID,18.9229,VALID,117,VALID,0.803516,
2010-08-10, 03:09:04,VALID,915.013,VALID,0,VALID,95.7349,VALID,0,VALID,18.9034,VALID,117,VALID,0.863281,
2010-08-10, 03:10:04,VALID,915.021,VALID,0,VALID,95.7044,VALID,0,VALID,18.8644,VALID,117,VALID,0.646094,
2010-08-10, 03:11:04,VALID,915.016,VALID,0,VALID,95.8187,VALID,0,VALID,18.8434,VALID,117,VALID,0.810547,
2010-08-10, 03:12:04,VALID,915.028,VALID,0,VALID,95.9178,VALID,0,VALID,18.8449,VALID,117,VALID,0.880469,
2010-08-10, 03:13:04,VALID,915.042,VALID,0,VALID,95.9483,VALID,0,VALID,18.8644,VALID,117,VALID,0.807813,
2010-08-10, 03:14:04,VALID,915.031,VALID,0,VALID,95.9788,VALID,0,VALID,18.8254,VALID,117,VALID,0.649609,
2010-08-10, 03:15:04,VALID,915.069,VALID,0,VALID,95.9712,VALID,0,VALID,18.8254,VALID,118,VALID,0.857813,
2010-08-10, 03:16:04,VALID,915.027,VALID,0,VALID,96.0703,VALID,0,VALID,18.8644,VALID,161,VALID,1.07617,
2010-08-10, 03:17:04,VALID,914.99,VALID,0,VALID,96.0932,VALID,0,VALID,18.9034,VALID,161,VALID,0.817969,
2010-08-10, 03:18:04,VALID,914.936,VALID,0,VALID,96.0017,VALID,0,VALID,18.8839,VALID,161,VALID,0.640234,
2010-08-10, 03:19:04,VALID,914.876,VALID,0,VALID,95.8568,VALID,0,VALID,18.8839,VALID,161,VALID,1.03555,
2010-08-10, 03:20:04,VALID,914.846,VALID,0,VALID,95.8263,VALID,0,VALID,18.8644,VALID,124,VALID,0.964453,
2010-08-10, 03:21:04,VALID,914.84,VALID,0,VALID,95.8263,VALID,0,VALID,18.8644,VALID,117,VALID,1.00117,
2010-08-10, 03:22:04,VALID,914.849,VALID,0,VALID,95.7501,VALID,0,VALID,18.8463,VALID,117,VALID,0.361719,
2010-08-10, 03:23:04,VALID,914.82,VALID,0,VALID,95.6815,VALID,0,VALID,18.8254,VALID,117,VALID,0.433594,
2010-08-10, 03:24:04,VALID,914.812,VALID,0,VALID,95.6662,VALID,0,VALID,18.8449,VALID,117,VALID,1.08477,
2010-08-10, 03:25:04,VALID,914.851,VALID,0,VALID,95.7044,VALID,0,VALID,18.8839,VALID,159,VALID,1.06367,
2010-08-10, 03:26:04,VALID,914.857,VALID,0,VALID,95.7425,VALID,0,VALID,18.9229,VALID,169,VALID,1.37422,
2010-08-10, 03:27:04,VALID,914.809,VALID,0,VALID,95.6281,VALID,0.107441,VALID,18.9424,VALID,149,VALID,1.35117,
2010-08-10, 03:28:04,VALID,914.775,VALID,0,VALID,95.7044,VALID,0,VALID,18.9814,VALID,182,VALID,0.926953,
2010-08-10, 03:29:04,VALID,914.762,VALID,0,VALID,95.5824,VALID,0,VALID,19.0008,VALID,158,VALID,0.947266,
2010-08-10, 03:30:04,VALID,914.75,VALID,0,VALID,95.4604,VALID,0,VALID,19.0008,VALID,110,VALID,0.942969,
2010-08-10, 03:31:04,VALID,914.733,VALID,0,VALID,95.4071,VALID,0,VALID,19.0008,VALID,135,VALID,1.3043,
2010-08-10, 03:32:04,VALID,914.755,VALID,0,VALID,95.3842,VALID,0,VALID,19.0189,VALID,139,VALID,1.47383,
2010-08-10, 03:33:04,VALID,914.761,VALID,0,VALID,95.3537,VALID,0,VALID,19.0398,VALID,132,VALID,1.1293,
2010-08-10, 03:34:04,VALID,914.761,VALID,0,VALID,95.2851,VALID,0,VALID,19.0398,VALID,128,VALID,1.34805,
2010-08-10, 03:35:04,VALID,914.741,VALID,0,VALID,95.2165,VALID,0,VALID,19.0788,VALID,139,VALID,1.3375,
2010-08-10, 03:36:04,VALID,914.754,VALID,0,VALID,95.125,VALID,0,VALID,19.0788,VALID,124,VALID,1.45391,
2010-08-10, 03:37:04,VALID,914.714,VALID,0,VALID,95.064,VALID,0,VALID,19.0983,VALID,178,VALID,0.852344,
2010-08-10, 03:38:04,VALID,914.718,VALID,0,VALID,94.9801,VALID,0,VALID,19.0969,VALID,145,VALID,1.53984,
2010-08-10, 03:39:04,VALID,914.688,VALID,0,VALID,94.8734,VALID,0,VALID,19.0788,VALID,169,VALID,1.33398,
2010-08-10, 03:40:04,VALID,914.667,VALID,0,VALID,94.8353,VALID,0,VALID,19.0593,VALID,146,VALID,0.994922,
2010-08-10, 03:41:04,VALID,914.668,VALID,0,VALID,94.8505,VALID,0,VALID,19.0203,VALID,175,VALID,1.39805,
2010-08-10, 03:42:04,VALID,914.686,VALID,0,VALID,95.0411,VALID,0,VALID,19.0203,VALID,160,VALID,1.83477,
2010-08-10, 03:43:04,VALID,914.692,VALID,0,VALID,95.1326,VALID,0,VALID,18.9994,VALID,145,VALID,1.12422,
2010-08-10, 03:44:04,VALID,914.645,VALID,0,VALID,95.1936,VALID,0,VALID,19.0008,VALID,140,VALID,1.41562,
2010-08-10, 03:45:04,VALID,914.604,VALID,0,VALID,95.2317,VALID,0,VALID,19.0203,VALID,173,VALID,1.05,
2010-08-10, 03:46:04,VALID,914.598,VALID,0,VALID,95.2698,VALID,0,VALID,19.0008,VALID,160,VALID,1.2,